| time (UTC) | temp C | wind direction | speed KPH | gust KPH | rain 1hr cm | rain 24hr cm | rain mn cm | humidity % | barometer mb |
| 20260505153017 | 12 | 225 | 1.6 | 4.8 | 0.00 | 0.00 | 0.00 | 89 | 1009.8 |
| 20260505152015 | 12 | 225 | 1.6 | 3.2 | 0.00 | 0.00 | 0.00 | 89 | 1009.8 |
| 20260505151016 | 11 | 247 | 1.6 | 3.2 | 0.00 | 0.00 | 0.00 | 90 | 1009.8 |
| 20260505125015 | 11 | 247 | 0.0 | 1.6 | 0.00 | 0.00 | 0.00 | 93 | 1008.8 |
| 20260505124015 | 10 | 247 | 0.0 | 1.6 | 0.00 | 0.00 | 0.00 | 93 | 1008.8 |
| 20260505123015 | 10 | 247 | 0.0 | 1.6 | 0.00 | 0.00 | 0.00 | 93 | 1008.8 |
| 20260505122016 | 10 | 0.0 | 0.0 | 0.00 | 0.00 | 0.00 | 93 | 1008.8 | |
| 20260505121015 | 10 | 0.0 | 0.0 | 0.00 | 0.00 | 0.00 | 93 | 1008.8 | |
| 20260505120016 | 10 | 0.0 | 0.0 | 0.00 | 0.00 | 0.00 | 93 | 1008.7 | |
| 20260505115015 | 10 | 0.0 | 0.0 | 0.00 | 0.00 | 0.00 | 94 | 1008.5 | |
| 20260505114015 | 10 | 0.0 | 0.0 | 0.00 | 0.00 | 0.00 | 94 | 1008.6 | |
| 20260505113015 | 10 | 0.0 | 0.0 | 0.00 | 0.00 | 0.00 | 94 | 1008.5 | |
| 20260505112123 | 10 | 0.0 | 0.0 | 0.00 | 0.00 | 0.00 | 94 | 1008.5 | |
| 20260505111016 | 10 | 247 | 0.0 | 1.6 | 0.00 | 0.00 | 0.00 | 94 | 1008.5 |
| 20260505102036 | 9 | 247 | 1.6 | 1.6 | 0.00 | 0.00 | 0.00 | 93 | 1008.1 |
| 20260505101056 | 9 | 247 | 0.0 | 1.6 | 0.00 | 0.00 | 0.00 | 93 | 1008.1 |
| 20260505100015 | 9 | 247 | 0.0 | 1.6 | 0.00 | 0.00 | 0.00 | 93 | 1008.1 |
| 20260505095015 | 10 | 0.0 | 0.0 | 0.00 | 0.00 | 0.00 | 92 | 1008.1 | |
| 20260505094016 | 10 | 247 | 0.0 | 1.6 | 0.00 | 0.00 | 0.00 | 92 | 1007.9 |
| 20260505093015 | 10 | 0.0 | 0.0 | 0.00 | 0.00 | 0.00 | 92 | 1007.9 | |
| 20260505092016 | 10 | 247 | 1.6 | 4.8 | 0.00 | 0.00 | 0.00 | 91 | 1007.8 |
| 20260505091016 | 10 | 0.0 | 0.0 | 0.00 | 0.00 | 0.00 | 91 | 1007.8 | |
| 20260505090016 | 10 | 0.0 | 0.0 | 0.00 | 0.00 | 0.00 | 91 | 1007.4 | |
| 20260505085037 | 10 | 247 | 1.6 | 3.2 | 0.00 | 0.00 | 0.00 | 91 | 1007.6 |
| 20260505084015 | 10 | 247 | 1.6 | 3.2 | 0.00 | 0.00 | 0.00 | 90 | 1007.7 |
| 20260505083017 | 10 | 247 | 0.0 | 3.2 | 0.00 | 0.00 | 0.00 | 89 | 1007.9 |
| 20260505082015 | 10 | 247 | 0.0 | 1.6 | 0.00 | 0.00 | 0.00 | 88 | 1007.7 |
| 20260505081016 | 11 | 247 | 0.0 | 3.2 | 0.00 | 0.00 | 0.00 | 88 | 1007.4 |
| 20260505080017 | 11 | 0.0 | 0.0 | 0.00 | 0.00 | 0.00 | 87 | 1007.4 | |
| 20260505075015 | 11 | 0.0 | 0.0 | 0.00 | 0.00 | 0.00 | 87 | 1007.4 | |
| 20260505074016 | 11 | 247 | 0.0 | 1.6 | 0.00 | 0.00 | 0.00 | 87 | 1007.4 |
| 20260505073017 | 11 | 247 | 1.6 | 3.2 | 0.00 | 0.00 | 0.00 | 86 | 1007.1 |
| 20260505072035 | 12 | 247 | 1.6 | 3.2 | 0.00 | 0.00 | 0.00 | 86 | 1007.1 |
| 20260505071015 | 12 | 247 | 1.6 | 4.8 | 0.00 | 0.00 | 0.00 | 85 | 1007.1 |
| 20260505070016 | 12 | 226 | 1.6 | 3.2 | 0.00 | 0.00 | 0.00 | 85 | 1006.8 |
| 20260505065016 | 12 | 0.0 | 0.0 | 0.00 | 0.00 | 0.00 | 85 | 1006.8 | |
| 20260505064015 | 12 | 225 | 1.6 | 1.6 | 0.00 | 0.00 | 0.00 | 84 | 1006.5 |
| 20260505063015 | 12 | 225 | 1.6 | 3.2 | 0.00 | 0.00 | 0.00 | 84 | 1006.4 |
| 20260505062015 | 12 | 225 | 1.6 | 3.2 | 0.00 | 0.00 | 0.00 | 84 | 1006.4 |
| 20260505061036 | 13 | 225 | 1.6 | 3.2 | 0.00 | 0.00 | 0.00 | 83 | 1006.4 |
| 20260505060015 | 13 | 225 | 1.6 | 3.2 | 0.00 | 0.00 | 0.00 | 83 | 1006.4 |
| 20260505055017 | 13 | 225 | 1.6 | 3.2 | 0.00 | 0.00 | 0.00 | 82 | 1006.1 |
| 20260505054015 | 13 | 225 | 0.0 | 3.2 | 0.00 | 0.00 | 0.00 | 81 | 1006.1 |
| 20260505053016 | 13 | 225 | 1.6 | 3.2 | 0.00 | 0.00 | 0.00 | 80 | 1006.2 |
| 20260505052016 | 14 | 239 | 3.2 | 4.8 | 0.00 | 0.00 | 0.00 | 79 | 1006.1 |
| 20260505051015 | 15 | 225 | 1.6 | 4.8 | 0.00 | 0.00 | 0.00 | 78 | 1006.1 |
| 20260505041016 | 16 | 0.0 | 0.0 | 0.00 | 0.00 | 0.00 | 71 | 1005.1 | |
| 20260505040035 | 17 | 0.0 | 0.0 | 0.00 | 0.00 | 0.00 | 70 | 1004.8 | |
| 20260505035016 | 17 | 0.0 | 0.0 | 0.00 | 0.00 | 0.00 | 69 | 1004.7 | |
| 20260505034016 | 18 | 0.0 | 0.0 | 0.00 | 0.00 | 0.00 | 69 | 1004.6 | |
| 20260505033017 | 18 | 225 | 0.0 | 1.6 | 0.00 | 0.00 | 0.00 | 68 | 1004.6 |
| 20260505032015 | 18 | 225 | 0.0 | 3.2 | 0.00 | 0.00 | 0.00 | 67 | 1004.4 |
| 20260505031016 | 18 | 225 | 1.6 | 3.2 | 0.00 | 0.00 | 0.00 | 67 | 1004.4 |
| 20260505030015 | 19 | 229 | 1.6 | 4.8 | 0.00 | 0.00 | 0.00 | 68 | 1004.2 |
| 20260505025015 | 19 | 225 | 1.6 | 4.8 | 0.00 | 0.00 | 0.00 | 68 | 1004.0 |
| 20260505024016 | 20 | 225 | 0.0 | 3.2 | 0.00 | 0.00 | 0.00 | 67 | 1004.0 |
| 20260505023016 | 20 | 225 | 3.2 | 4.8 | 0.00 | 0.00 | 0.00 | 66 | 1004.0 |
| 20260505022035 | 20 | 225 | 3.2 | 6.4 | 0.00 | 0.00 | 0.00 | 67 | 1004.0 |
| 20260505021015 | 21 | 209 | 1.6 | 6.4 | 0.00 | 0.00 | 0.00 | 67 | 1003.8 |
| 20260505020015 | 21 | 225 | 1.6 | 4.8 | 0.00 | 0.00 | 0.00 | 67 | 1003.7 |
| 20260505015016 | 21 | 225 | 1.6 | 4.8 | 0.00 | 0.00 | 0.00 | 66 | 1003.7 |
| 20260505014017 | 21 | 227 | 1.6 | 3.2 | 0.00 | 0.00 | 0.00 | 65 | 1003.7 |
| 20260505013015 | 21 | 225 | 1.6 | 6.4 | 0.00 | 0.00 | 0.00 | 66 | 1003.7 |
| 20260505012036 | 21 | 229 | 1.6 | 4.8 | 0.00 | 0.00 | 0.00 | 66 | 1003.9 |
| 20260505011015 | 21 | 225 | 1.6 | 4.8 | 0.00 | 0.00 | 0.00 | 65 | 1004.1 |
| 20260505010015 | 21 | 225 | 1.6 | 4.8 | 0.00 | 0.00 | 0.00 | 64 | 1004.1 |
| 20260505005018 | 21 | 225 | 1.6 | 6.4 | 0.00 | 0.00 | 0.00 | 64 | 1004.0 |
| 20260505004017 | 21 | 209 | 1.6 | 6.4 | 0.00 | 0.00 | 0.00 | 64 | 1004.2 |
| 20260505003017 | 21 | 231 | 1.6 | 4.8 | 0.00 | 0.00 | 0.00 | 64 | 1004.4 |
| 20260505002036 | 21 | 225 | 1.6 | 6.4 | 0.00 | 0.00 | 0.00 | 64 | 1004.4 |
| 20260505001038 | 22 | 225 | 1.6 | 6.4 | 0.00 | 0.00 | 0.00 | 63 | 1004.4 |
| 20260505000015 | 21 | 229 | 3.2 | 6.4 | 0.00 | 0.00 | 0.00 | 64 | 1004.4 |
| 20260504235016 | 21 | 225 | 3.2 | 6.4 | 0.00 | 0.00 | 0.00 | 64 | 1004.4 |
| 20260504234016 | 21 | 229 | 3.2 | 6.4 | 0.00 | 0.00 | 0.00 | 63 | 1004.6 |
| 20260504233017 | 21 | 242 | 1.6 | 4.8 | 0.00 | 0.00 | 0.00 | 64 | 1004.7 |
| 20260504232016 | 21 | 228 | 3.2 | 6.4 | 0.00 | 0.00 | 0.00 | 63 | 1004.6 |
| 20260504231015 | 21 | 229 | 3.2 | 6.4 | 0.00 | 0.00 | 0.00 | 61 | 1004.7 |
| 20260504230015 | 22 | 228 | 3.2 | 9.7 | 0.00 | 0.00 | 0.00 | 61 | 1004.7 |
| 20260504225016 | 22 | 233 | 3.2 | 6.4 | 0.00 | 0.00 | 0.00 | 60 | 1004.8 |
| 20260504224015 | 22 | 228 | 3.2 | 8.0 | 0.00 | 0.00 | 0.00 | 61 | 1004.9 |
| 20260504223016 | 21 | 229 | 3.2 | 8.0 | 0.00 | 0.00 | 0.00 | 61 | 1005.1 |
| 20260504222117 | 21 | 229 | 4.8 | 8.0 | 0.00 | 0.00 | 0.00 | 61 | 1005.1 |
| 20260504221036 | 21 | 226 | 3.2 | 9.7 | 0.00 | 0.00 | 0.00 | 61 | 1005.3 |
| 20260504220015 | 21 | 233 | 3.2 | 8.0 | 0.00 | 0.00 | 0.00 | 62 | 1005.4 |
| 20260504215015 | 21 | 237 | 3.2 | 6.4 | 0.00 | 0.00 | 0.00 | 62 | 1005.4 |
| 20260504214016 | 21 | 230 | 3.2 | 8.0 | 0.00 | 0.00 | 0.00 | 61 | 1005.6 |
| 20260504213016 | 21 | 222 | 3.2 | 6.4 | 0.00 | 0.00 | 0.00 | 60 | 1005.7 |
| 20260504212055 | 21 | 238 | 1.6 | 8.0 | 0.00 | 0.00 | 0.00 | 61 | 1005.9 |
| 20260504211036 | 21 | 235 | 3.2 | 8.0 | 0.00 | 0.00 | 0.00 | 61 | 1006.1 |
| 20260504210016 | 21 | 234 | 1.6 | 3.2 | 0.00 | 0.00 | 0.00 | 61 | 1006.3 |
| 20260504205016 | 21 | 234 | 1.6 | 6.4 | 0.00 | 0.00 | 0.00 | 63 | 1006.4 |
| 20260504204015 | 20 | 249 | 0.0 | 8.0 | 0.00 | 0.00 | 0.00 | 64 | 1006.4 |
| 20260504203018 | 20 | 228 | 3.2 | 6.4 | 0.00 | 0.00 | 0.00 | 64 | 1006.6 |
| 20260504202015 | 20 | 235 | 3.2 | 6.4 | 0.00 | 0.00 | 0.00 | 65 | 1006.8 |
| 20260504201016 | 19 | 240 | 1.6 | 4.8 | 0.00 | 0.00 | 0.00 | 67 | 1007.0 |
| 20260504200015 | 18 | 237 | 1.6 | 6.4 | 0.00 | 0.00 | 0.00 | 70 | 1007.0 |
| 20260504195015 | 17 | 230 | 0.0 | 4.8 | 0.00 | 0.00 | 0.00 | 73 | 1007.2 |
| 20260504194016 | 16 | 228 | 3.2 | 6.4 | 0.00 | 0.00 | 0.00 | 73 | 1007.1 |
| 20260504193018 | 16 | 230 | 3.2 | 6.4 | 0.00 | 0.00 | 0.00 | 74 | 1007.4 |
| 20260504192016 | 16 | 232 | 1.6 | 6.4 | 0.00 | 0.00 | 0.00 | 75 | 1007.4 |
| 20260504191016 | 15 | 229 | 1.6 | 4.8 | 0.00 | 0.00 | 0.00 | 77 | 1007.4 |
| 20260504190016 | 15 | 230 | 1.6 | 6.4 | 0.00 | 0.00 | 0.00 | 78 | 1007.4 |
| 20260504185016 | 15 | 225 | 1.6 | 4.8 | 0.00 | 0.00 | 0.00 | 79 | 1007.6 |
| 20260504184035 | 15 | 225 | 1.6 | 4.8 | 0.00 | 0.00 | 0.00 | 80 | 1007.6 |
| 20260504183015 | 15 | 227 | 1.6 | 4.8 | 0.00 | 0.00 | 0.00 | 80 | 1007.5 |
| 20260504182016 | 14 | 225 | 1.6 | 4.8 | 0.00 | 0.00 | 0.00 | 81 | 1007.4 |
| 20260504181016 | 14 | 228 | 0.0 | 4.8 | 0.00 | 0.00 | 0.00 | 81 | 1007.5 |
| 20260504180015 | 14 | 225 | 1.6 | 3.2 | 0.00 | 0.00 | 0.00 | 82 | 1007.5 |
| 20260504175015 | 13 | 226 | 1.6 | 4.8 | 0.00 | 0.00 | 0.00 | 82 | 1007.4 |
| 20260504174016 | 13 | 247 | 0.0 | 3.2 | 0.00 | 0.00 | 0.00 | 83 | 1007.4 |
| 20260504173015 | 13 | 241 | 0.0 | 3.2 | 0.00 | 0.00 | 0.00 | 83 | 1007.4 |
| 20260504172016 | 13 | 226 | 1.6 | 6.4 | 0.00 | 0.00 | 0.00 | 84 | 1007.4 |
| 20260504171017 | 13 | 228 | 1.6 | 4.8 | 0.00 | 0.00 | 0.00 | 84 | 1007.4 |